Regional Weather Roundup
Issued by NWS

Home | Current Version | Previous Version | Text Only | Print | Product List | Glossary Off
Versions: 1 2 3 4 5 6 7 8 9 10 11 12 13 14 15 16 17 18 19 20 21 22 23 24 25 26 27 28 29 30 31 32 33 34 35 36 37 38 39 40 41 42 43 44 45 46 47 48 49 50

000
ASUS43 KMKX 260500
RWRWI

WISCONSIN REGIONAL WEATHER ROUNDUP
NATIONAL WEATHER SERVICE MILWAUKEE/SULLIVAN WI
1200 AM CDT SAT JUL 26 2014

NOTE: "FAIR" INDICATES FEW OR NO CLOUDS BELOW 12,000 FEET WITH NO
SIGNIFICANT WEATHER AND/OR OBSTRUCTIONS TO VISIBILITY.

WIZ001-002-006>008-014>016-023>028-260600-
NORTHWEST WISCONSIN

CITY           SKY/WX    TMP DP  RH WIND       PRES   REMARKS
SUPERIOR ARPT  CLOUDY    64  62  94 S6        29.76F
ASHLAND        CLOUDY    68  65  90 S6        29.79S
HAYWARD        CLOUDY    68  67  96 S6        29.82S
SIREN          CLOUDY    71  67  87 S7        29.81R
RICE LAKE      CLOUDY    69  66  91 SE5       29.84R
LADYSMITH      CLOUDY    69  64  85 S5        29.86R
EAU CLAIRE     CLOUDY    71  66  84 S9        29.83S
MENOMONIE      CLOUDY    71  67  88 SE6       29.83S
NEW RICHMOND   CLOUDY    71  69  93 S8        29.82S
OSCEOLA        CLOUDY    73  70  92 S6        29.83R
$$

WIZ003>005-009-010-017-018-260600-
NORTH CENTRAL WISCONSIN

CITY           SKY/WX    TMP DP  RH WIND       PRES   REMARKS
WOODRUFF       CLOUDY    65  62  91 SW7       29.85R
RHINELANDER    CLOUDY    64  62  93 SW8       29.87R
EAGLE RIVER    CLOUDY    64  63  96 SW7       29.85R
LAND O LAKES   CLOUDY    65  63  92 SW6       29.85S
PHILLIPS       CLOUDY    65  64  94 S7        29.85R
TOMAHAWK       CLOUDY    64  61  91 CALM      29.87R
MEDFORD        CLOUDY    64  62  92 S6        29.87R
MERRILL        CLOUDY    65  63  92 SW5       29.86S
$$

WIZ029-030-035-036-043>047-260600-
CENTRAL WISCONSIN

CITY           SKY/WX    TMP DP  RH WIND       PRES   REMARKS
WAUSAU         CLOUDY    67  62  84 S8        29.86R
MOSINEE        CLOUDY    64  63  94 S9        29.88R
MARSHFIELD     CLEAR     64  62  93 S12       29.86S
STEVENS POINT  PTCLDY    63  60  90 S6        29.88R
WAUPACA        PTCLDY    68  63  83 S3        29.87S
WAUTOMA        PTCLDY    66  63  88 CALM      29.88S
WISC RAPIDS    CLEAR     65  62  90 S7        29.89R
CAMP DOUGLAS   NOT AVBL
$$

WIZ011>013-019>022-031-037>040-048>050-260600-
NORTHEAST WISCONSIN

CITY           SKY/WX    TMP DP  RH WIND       PRES   REMARKS
ANTIGO         CLOUDY    63  61  95 SW8       29.87S
STURGEON BAY   PTCLDY    63  57  82 S7        29.87S
GREEN BAY      PTCLDY    67  61  81 SW5       29.86S
MANITOWOC      NOT AVBL
APPLETON       CLOUDY    66  59  77 S9        29.88S
CLINTONVILLE   CLOUDY    66  61  82 SW5       29.86R
OSHKOSH        CLOUDY    68  62  81 S8        29.88R
$$

WIZ032>034-041-042-053>061-260600-
SOUTHWEST WISCONSIN

CITY           SKY/WX    TMP DP  RH WIND       PRES   REMARKS
LA CROSSE      CLOUDY    70  64  81 S9        29.86R
SPARTA         CLOUDY    67  61  79 SW6       29.87S
VIROQUA        CLOUDY    65  65  99 S6        29.88S
BOSCOBEL       CLOUDY    68  63  84 MISG      29.89R HAZE
PRAIRIE DU CHI CLOUDY    68  63  83 SE6       29.87R
PLATTEVILLE    CLOUDY    66  62  88 SE10      29.90R
$$

WIZ056-057-062-063-064-067-068-260600-
SOUTH CENTRAL WISCONSIN

CITY           SKY/WX    TMP DP  RH WIND       PRES   REMARKS
BARABOO/DELLS  CLOUDY    65  60  82 S8        29.88S
LONE ROCK      NOT AVBL
WATERTOWN      CLEAR     62  61  94 S3        29.90R
MADISON        PTCLDY    67  61  81 S9        29.89S
MIDDLETON      CLOUDY    68  61  78 S10       29.90R
MONROE         CLOUDY    64  61  88 S9        29.91R
JANESVILLE     CLOUDY    68  59  73 S8        29.90S
$$

WIZ051-052-058>065-066-070>072-260600-
SOUTHEAST WISCONSIN

CITY           SKY/WX    TMP DP  RH WIND       PRES   REMARKS
MILWAUKEE      PTCLDY    66  59  78 S6        29.90F
WAUKESHA       PTCLDY    63  59  88 S5        29.91F
MILWAUKEE/TIMM MOCLDY    66  57  72 S6        29.90F
RACINE         PTCLDY    64  59  83 S5        29.92F
BURLINGTON     PTCLDY    62  59  89 S6        29.91F
KENOSHA        MOCLDY    65  60  84 S5        29.92S
FOND DU LAC    PTCLDY    64  60  87 SW5       29.89R
SHEBOYGAN      PTCLDY    63  60  90 S3        29.89S
WEST BEND      MOCLDY    64  59  82 S3        29.89F
JUNEAU         CLEAR     64  59  85 S7        29.91R
$$

LSZ147-162-260600-
LAKE SUPERIOR

STATION/POSITION TIME  TEMP    WIND        PRES    WAVE
                       AIR SEA DIR/SP/G            HT/PER
                 (UTC) (F)     (DEG/KT/KT) (MB)    (FT/S)
W MID LAKE BUOY  0350   53 48  140/  4/  4 1008.0R   0
PORT WING        0400   70     220/  7/  9 1008.1
SAXON HARBOR     0400          190/  7/ 12 1008.5
$$

LMZ867-665-643>646-260600-
LAKE MICHIGAN

STATION/POSITION TIME  TEMP    WIND        PRES    WAVE
                       AIR SEA DIR/SP/G            HT/PER
                 (UTC) (F)     (DEG/KT/KT) (MB)    (FT/S)
N MID LAKE BUOY  0350   59 55  210/ 12/ 14 1010.2F   2/ 5
NORTHPORT PIER   0400   62     160/  3/  7 1010.5F
KEWAUNEE LAKESHO 0400   53     180/  7/  8 1012.0F
SHEBOYGAN LAKESH 0400   65     180/  6/  7 1012.2F
PORT WASHINGTON  0400   63     230/  3/  6 1012.9
ATWATER BUOY     0400   62     190/  6     1013.7F
MILWAUKEE LAKESH 0400   69     220/  8/  9   N/A
S MID LAKE BUOY  0350   64 62  180/  8/ 10 1013.4F   1/ 4
KENOSHA   LAKESH 0400   67     210/  6/  9 1012.5F
$$

TC  - TEMPERATURE IN CELSIUS
VSB - VISIBILITY IN STATUTE MILES
WCI - WIND CHILL INDEX
HX  - HEAT INDEX




USA.gov is the U.S. government's official web portal to all federal, state and local government web resources and services.